GFSSW_con_lsi_210.txt.gz
Lid_Strength_Index
2 2 2 2 2 1 1 1 1 1 1 1 1 1 1 -0 -0 2 5 2 1 -2 -2 1 3 5 4 4 4 4 8 10 11 10 9 7 6 6 6 6 5 4 4 3 2
2 2 2 1 2 2 1 1 1 1 1 1 1 1 1 1 2 5 2 -0 -2 -2 1 3 5 6 6 5 5 6 9 9 9 8 8 7 7 6 6 7 6 5 4 3 2
2 2 2 1 2 2 2 2 2 2 2 2 2 2 2 1 7 7 -1 -1 -0 -0 2 2 3 5 7 4 5 6 9 6 8 9 7 7 7 7 6 7 6 5 5 4 3
2 2 2 2 2 2 2 2 2 2 2 2 2 2 2 2 13 4 -1 -0 1 1 2 4 5 7 8 7 5 8 6 6 6 6 6 7 6 7 7 5 5 5 3 4 4
3 3 2 2 2 2 2 2 2 2 2 2 2 2 3 7 8 3 -0 1 2 3 4 5 7 7 9 7 6 7 6 7 6 6 6 6 8 7 7 5 5 4 4 4 4
3 3 3 3 2 2 2 1 1 1 1 1 2 2 6 10 4 2 3 2 3 4 4 4 6 6 8 8 7 6 6 6 7 7 7 8 7 8 8 6 5 4 4 4 4
4 3 3 3 3 2 2 1 1 1 1 2 2 3 6 7 3 3 3 3 3 2 4 2 2 5 5 8 6 6 8 7 7 8 8 7 9 9 6 6 6 5 4 4 4
4 4 3 3 3 2 2 2 2 1 1 2 2 4 8 3 2 3 3 4 2 2 2 2 2 4 6 5 6 8 8 11 7 8 8 8 11 8 6 7 7 6 5 5 4
4 4 4 3 2 2 2 2 2 2 2 2 4 6 9 3 4 2 2 4 2 1 1 1 2 5 6 9 10 9 11 11 9 7 8 8 10 8 8 7 7 7 5 5 4
4 4 3 2 2 2 2 2 4 4 4 3 4 7 6 8 4 2 0 1 3 3 4 5 5 8 8 11 14 12 12 11 10 8 9 9 9 9 8 8 6 7 7 5 5
5 4 3 3 3 2 3 4 7 8 7 9 9 9 8 5 4 3 1 3 3 5 9 6 10 13 10 10 9 10 11 11 9 7 8 10 10 8 9 8 8 7 6 6 5
4 4 4 3 3 3 4 7 8 7 11 7 7 7 6 5 7 5 1 6 7 10 7 10 13 8 8 8 10 10 12 12 10 8 9 9 10 9 8 8 8 8 7 6 5
4 4 3 3 3 4 6 6 4 5 10 9 7 8 6 5 7 6 4 5 8 10 10 12 10 8 9 9 11 11 11 12 12 9 8 10 11 10 9 8 8 8 7 6 6
4 4 3 3 6 5 7 5 4 4 13 12 9 7 5 4 7 3 4 6 8 10 9 10 8 10 11 10 10 13 9 9 11 12 15 10 14 11 9 9 10 9 8 8 6
4 4 3 4 5 7 6 5 5 6 19 11 9 4 5 7 6 6 3 6 10 10 10 12 11 11 12 11 9 11 8 9 9 12 12 12 14 11 11 11 9 9 9 8 8
5 4 3 5 5 5 4 5 6 14 19 14 10 10 9 7 7 6 7 5 7 10 10 10 8 8 9 8 8 8 10 10 10 11 17 13 13 12 11 10 10 11 10 10 9
5 4 4 4 7 4 5 8 14 17 14 14 13 11 10 10 10 9 10 11 12 15 15 12 11 8 8 11 9 9 11 17 18 18 17 13 14 11 9 10 11 11 11 11 11
5 6 7 5 5 5 8 12 19 20 17 12 12 11 12 10 10 10 11 13 10 11 14 15 17 11 9 10 10 10 11 15 19 19 16 14 16 12 10 10 10 10 9 9 9
6 7 7 7 6 6 10 17 17 17 13 13 13 14 13 11 10 11 12 12 11 11 15 15 15 10 10 9 8 11 14 10 14 18 16 13 12 10 11 11 11 10 9 9 8
7 9 9 6 7 8 12 16 17 14 12 12 17 14 15 12 12 12 12 10 11 9 9 13 16 12 10 9 9 10 8 14 12 18 19 16 15 12 12 12 11 10 9 9 8
9 12 9 6 7 11 15 17 17 13 12 13 14 14 13 13 13 13 12 10 9 9 9 10 12 13 11 11 12 11 12 12 11 13 16 17 14 11 11 11 10 9 8 8 9
11 14 8 7 13 15 16 17 14 14 12 12 11 12 12 12 13 12 12 11 7 8 12 9 12 15 13 11 10 11 12 11 14 15 14 15 13 11 10 10 9 9 9 9 9
14 14 8 8 16 16 18 16 14 15 13 13 13 11 11 12 14 11 11 7 7 9 11 10 13 16 15 12 11 12 11 12 12 12 14 15 13 10 10 10 9 9 9 9 9
13 15 12 10 13 15 17 17 16 13 14 13 12 11 12 13 10 12 10 8 7 7 7 8 12 13 16 14 12 13 11 12 12 14 14 13 12 11 11 11 10 9 8 9 9
13 15 14 16 15 15 15 15 16 16 14 12 13 13 13 16 14 13 10 9 8 7 8 10 14 12 11 11 11 12 12 11 12 12 14 12 12 11 10 10 9 8 8 9 9
14 14 14 17 16 15 14 16 16 15 14 15 15 13 13 15 13 14 12 10 10 9 9 9 14 13 14 11 11 13 11 11 11 11 12 12 12 10 9 9 9 9 9 9 8
11 10 12 14 15 15 15 15 15 14 13 12 13 13 14 12 10 9 8 8 8 9 11 10 12 14 16 13 13 16 13 11 11 10 11 12 10 10 10 9 9 8 8 8 8

GFSSW_con_lsi_216.txt.gz
Lid_Strength_Index
4 4 4 4 3 3 3 3 3 3 2 1 1 1 1 1 1 3 6 2 1 -1 -1 3 4 4 4 6 4 4 10 12 10 10 9 6 7 6 6 7 6 5 5 4 2
4 4 4 4 3 3 3 3 3 3 2 1 2 1 1 1 3 3 0 -1 -0 -1 4 5 6 5 7 7 6 7 11 10 7 7 7 6 7 7 8 7 7 6 4 3 3
5 4 4 4 4 3 3 3 3 3 3 2 2 2 1 2 7 5 -1 -1 -1 0 4 4 4 6 8 8 8 6 10 7 6 6 6 7 8 5 8 8 6 6 6 4 4
5 5 4 4 4 4 3 3 3 3 3 3 2 2 1 4 12 5 -0 -0 -1 2 4 5 6 8 9 10 8 11 8 6 6 5 6 8 7 8 6 7 5 5 4 4 5
5 5 5 4 4 4 3 3 3 3 3 3 2 1 3 8 7 3 0 1 3 4 5 6 7 8 10 9 9 10 9 8 7 5 6 7 7 7 6 5 6 5 4 5 5
5 5 5 4 4 4 4 3 3 3 3 2 2 2 5 10 4 3 3 3 3 3 4 5 6 5 8 9 10 9 9 9 8 7 5 7 7 6 6 5 7 6 5 5 4
5 5 5 5 4 4 3 3 3 3 2 2 1 3 7 8 4 3 3 3 4 3 5 3 4 6 7 9 7 8 11 9 9 8 7 6 9 8 6 6 6 6 5 5 4
5 5 5 4 4 3 3 3 3 3 2 2 2 4 8 3 3 3 3 3 3 4 4 3 4 6 7 6 8 10 10 14 10 9 7 7 12 7 5 6 7 7 7 5 4
5 5 4 4 4 3 3 3 3 3 3 3 4 6 8 3 5 4 3 5 3 3 4 4 5 8 7 10 12 11 15 13 12 9 9 8 10 7 5 6 7 7 7 6 5
5 5 4 4 4 3 3 3 4 4 4 3 4 7 6 8 5 4 4 3 5 5 6 7 7 9 9 10 16 13 13 12 13 11 9 10 9 7 6 6 7 6 7 7 5
5 4 4 4 4 4 4 4 7 7 6 9 8 8 7 5 4 5 4 4 5 6 10 6 10 12 10 10 9 10 12 12 10 8 9 10 9 8 7 9 9 8 7 7 6
5 4 4 4 4 4 4 8 8 7 11 7 7 7 6 5 7 6 4 7 8 10 7 10 12 9 8 9 9 10 11 13 10 8 10 10 10 8 7 8 8 8 8 7 5
5 4 4 4 4 4 6 7 4 5 11 8 7 7 7 5 8 7 5 7 9 9 9 12 10 8 8 10 11 11 12 12 13 10 10 11 12 10 8 7 7 7 8 7 6
5 4 4 4 6 6 7 5 4 5 13 12 9 7 7 6 8 4 4 7 8 10 9 10 9 10 10 11 10 13 9 10 13 14 17 11 18 12 10 9 8 8 8 8 7
5 5 4 4 6 7 6 5 4 6 20 11 10 5 6 9 8 7 4 6 10 10 10 12 11 11 12 11 10 13 9 10 12 14 14 13 17 13 9 10 9 8 8 8 7
5 5 5 5 5 6 5 5 6 14 21 16 10 11 10 9 9 7 7 6 7 9 10 11 8 9 10 9 9 9 11 11 12 13 19 14 15 15 12 10 9 10 9 8 8
5 5 5 5 7 4 5 8 15 18 14 17 14 12 11 12 11 10 10 11 12 15 15 12 11 9 9 11 10 11 14 19 20 20 20 13 15 14 10 11 11 11 10 10 10
5 6 6 5 4 4 6 13 21 20 18 12 13 12 13 12 12 11 11 12 10 11 14 15 18 11 9 10 13 12 13 18 22 21 18 15 17 13 11 10 10 9 9 9 10
5 5 6 5 4 5 10 18 19 16 14 14 13 16 15 13 13 13 12 12 10 10 15 16 16 10 9 9 9 12 14 11 16 18 19 16 13 10 10 10 10 9 9 9 9
7 8 7 5 5 7 14 16 17 12 12 13 17 15 19 16 16 15 14 10 11 8 8 12 16 11 10 9 9 11 9 15 15 22 22 17 16 16 13 11 10 10 9 9 9
8 11 7 5 6 12 17 17 16 12 12 13 15 16 15 15 15 16 14 11 10 10 8 10 12 14 12 13 14 13 14 12 12 14 18 19 18 13 12 11 11 9 9 9 9
9 16 7 5 13 15 16 18 14 13 11 12 12 13 14 14 15 14 14 12 9 9 11 10 12 15 14 10 10 10 12 12 16 16 15 16 17 10 11 10 9 9 9 9 9
14 13 7 7 16 16 17 18 14 14 13 13 13 12 12 15 18 14 13 10 10 10 12 9 13 17 16 13 11 13 11 11 11 13 16 18 16 10 10 10 9 10 10 10 9
14 17 12 10 12 14 17 18 18 13 14 13 13 12 14 15 13 15 14 11 10 9 8 9 12 15 18 15 12 14 13 11 12 16 16 15 14 11 11 11 10 10 10 10 10
14 15 14 18 17 14 14 16 16 18 14 13 15 14 14 19 16 17 14 13 11 9 11 11 15 13 12 12 12 13 13 12 13 12 15 14 14 10 11 12 10 9 10 10 10
15 15 14 15 14 15 14 18 16 15 15 16 19 14 14 17 15 17 14 14 14 12 12 12 17 14 16 12 12 13 12 12 12 12 13 12 13 10 11 10 10 9 9 10 10
10 10 12 15 15 16 16 15 15 14 13 12 13 14 15 13 12 12 11 11 12 13 15 14 17 21 22 14 13 19 14 13 13 11 11 14 11 11 11 9 9 9 9 9 9

GFSSW_con_lsi_219.txt.gz
Lid_Strength_Index
5 5 4 4 4 4 4 3 3 3 3 3 3 2 2 2 2 2 5 2 1 -1 -0 5 5 5 6 8 7 6 11 13 12 10 9 6 8 6 6 8 6 5 6 4 3
5 5 5 4 4 4 4 3 3 3 3 3 3 3 1 2 4 3 0 -1 -1 -1 5 7 7 7 10 9 9 8 12 11 8 8 9 7 7 7 8 8 7 7 4 3 3
5 5 5 4 4 4 4 4 3 3 3 3 3 3 2 2 7 6 1 1 1 1 4 6 6 8 10 10 11 11 11 8 7 6 6 7 7 8 7 9 8 7 6 4 4
5 5 5 5 4 4 4 4 3 3 3 3 3 3 2 5 14 5 -0 0 0 2 5 7 7 10 11 11 10 13 10 10 9 8 8 8 7 8 9 7 6 5 5 4 5
5 5 5 5 5 4 4 4 3 3 2 2 2 3 5 9 9 4 0 2 3 3 4 7 8 8 10 11 10 12 11 9 9 9 9 8 8 8 8 7 5 4 5 5 5
6 6 5 5 5 4 4 3 3 3 2 2 3 3 7 11 4 3 3 3 4 4 5 5 6 6 8 9 11 10 9 9 9 9 9 9 8 7 7 6 6 5 5 5 5
6 6 5 5 5 4 4 3 3 3 3 3 3 4 7 8 5 4 4 4 4 5 5 4 4 7 8 9 8 9 12 10 10 10 10 8 10 9 6 6 7 6 5 5 5
6 6 5 5 5 4 3 3 3 3 3 3 2 5 9 4 5 4 4 5 3 3 5 5 4 6 8 8 9 11 12 16 12 10 10 10 14 9 6 7 7 7 5 5 5
6 6 5 5 5 4 3 3 3 4 4 3 5 8 9 3 6 5 5 6 4 3 5 4 6 9 9 12 15 14 17 15 13 10 10 11 13 9 7 7 7 7 7 5 5
6 5 5 5 4 3 3 2 4 4 4 4 4 9 7 8 6 5 5 5 5 6 6 8 9 13 12 14 17 15 14 13 15 11 10 11 13 11 8 7 8 7 7 6 5
6 5 5 4 3 3 4 7 11 11 9 10 9 9 7 6 5 6 4 5 5 7 12 10 14 15 12 12 11 11 12 13 11 9 10 11 12 10 10 8 8 8 7 6 5
6 5 5 4 3 3 6 10 9 9 14 8 8 7 6 5 8 7 5 9 9 12 10 13 15 10 9 9 10 12 13 13 10 8 9 11 12 9 8 8 8 9 9 8 5
6 5 4 4 4 6 8 8 6 7 13 9 8 8 7 6 9 7 6 8 11 12 12 15 11 9 10 11 12 12 13 13 12 10 9 12 14 11 9 9 8 8 8 8 5
6 5 4 4 7 8 9 6 6 7 20 15 10 8 7 7 9 5 5 8 10 12 11 12 9 10 12 12 11 14 10 10 12 14 17 12 19 13 11 10 9 9 8 8 8
6 6 5 4 9 9 7 6 6 8 26 13 11 6 8 9 9 9 6 8 12 12 11 13 11 11 12 12 10 12 10 11 11 14 15 14 17 15 11 12 11 9 8 8 7
6 6 5 6 8 7 6 7 8 19 27 19 12 12 11 10 10 9 9 8 9 11 11 11 8 9 11 10 10 9 11 11 12 14 19 14 16 16 13 11 11 12 11 9 8
6 6 6 6 9 6 6 10 20 23 18 20 17 13 13 13 13 12 11 13 14 16 17 14 11 9 9 11 9 10 13 19 21 21 20 13 16 13 11 11 12 11 11 11 10
6 7 6 6 6 7 9 18 26 25 24 14 14 13 15 14 15 13 13 16 11 12 15 16 18 12 9 10 13 12 13 18 22 22 19 14 16 13 11 11 9 11 11 10 10
6 9 9 8 6 8 16 24 23 21 16 16 15 20 20 14 16 17 16 13 12 11 15 16 17 10 9 9 10 13 15 11 16 17 18 16 14 11 11 11 10 10 10 10 9
11 11 11 7 7 11 20 19 21 13 13 14 20 18 24 19 19 20 17 12 14 11 10 12 16 12 10 9 10 11 10 16 15 22 22 16 17 17 13 12 11 10 10 9 9
12 16 10 7 9 17 24 22 18 13 13 15 17 18 17 18 18 22 18 13 12 12 10 10 13 14 11 13 14 13 14 13 13 14 19 19 16 12 13 12 11 10 9 9 10
14 23 10 9 20 19 26 24 14 14 13 13 14 15 16 16 17 16 16 14 12 12 15 10 13 15 15 11 10 11 13 13 17 18 15 16 16 11 11 10 9 10 10 10 10
17 16 10 10 25 23 18 21 15 15 14 14 15 14 14 16 20 16 15 12 11 12 14 12 14 19 18 13 11 12 11 11 12 13 16 18 17 11 11 10 10 11 11 10 10
18 19 16 15 17 20 24 23 21 14 15 14 14 14 15 17 15 17 16 13 12 11 9 11 14 15 19 16 13 14 13 11 12 16 16 15 14 11 12 11 11 11 11 11 10
17 20 18 20 17 19 19 18 18 21 15 14 16 15 16 21 18 18 15 15 13 11 12 14 23 15 15 14 13 13 13 13 14 13 16 14 14 11 11 12 11 10 10 10 10
18 19 19 16 18 18 16 21 18 17 17 17 22 15 15 20 17 18 16 16 16 14 14 14 22 20 22 13 13 14 13 12 12 12 13 13 14 10 10 9 11 10 10 10 9
13 13 16 15 18 20 21 17 16 15 15 14 15 16 16 15 14 14 13 13 13 15 17 17 20 24 27 17 16 20 15 13 14 12 13 15 12 10 11 10 10 10 9 9 9

GFSSW_con_lsi_225.txt.gz
Lid_Strength_Index
6 5 5 5 5 5 4 4 4 3 3 3 2 2 2 2 2 6 8 5 4 -0 -0 6 7 7 8 10 10 7 12 14 13 12 11 10 10 8 9 10 6 6 6 5 4
6 6 5 5 5 5 5 4 4 3 3 3 2 2 2 2 5 9 4 1 1 -1 4 8 9 8 11 11 11 9 13 12 10 11 13 11 11 9 10 11 10 7 5 3 6
6 6 6 6 5 5 5 4 4 3 3 2 2 2 1 3 9 9 2 1 1 2 5 7 8 9 11 12 12 13 13 13 12 10 10 11 11 10 10 10 9 11 9 4 6
6 6 6 6 6 5 5 4 4 3 3 2 2 2 1 6 15 7 1 1 1 3 4 6 7 11 12 13 11 15 12 11 10 9 10 11 11 11 11 9 8 9 5 5 5
6 7 6 6 6 5 5 4 4 3 3 2 2 2 6 11 10 5 2 2 4 4 6 7 9 10 12 12 11 14 11 10 10 10 11 11 12 12 11 9 8 8 5 5 5
7 7 7 6 6 5 5 4 3 3 3 2 2 2 9 13 6 5 5 4 4 6 6 7 8 8 11 11 12 11 11 11 11 11 11 12 12 12 12 10 9 8 5 5 5
7 7 7 6 6 5 5 4 3 3 3 2 2 5 9 10 6 5 5 6 5 6 8 7 6 9 10 12 10 10 13 12 12 11 11 10 14 14 12 9 9 9 8 5 5
7 7 7 7 6 5 4 3 3 3 3 2 2 7 11 5 6 5 5 6 5 4 6 6 6 8 10 9 11 13 14 17 13 11 11 12 16 12 10 11 10 9 9 8 5
8 8 7 6 6 5 4 3 3 4 3 3 7 9 12 4 7 5 6 7 6 5 5 5 8 10 11 14 16 16 19 17 15 11 12 13 15 12 10 11 11 10 9 8 7
8 8 7 6 5 4 4 4 4 6 6 5 6 12 9 9 7 6 6 5 7 7 8 9 11 14 15 16 19 17 18 16 15 12 12 13 14 12 11 11 11 11 10 9 8
8 8 7 6 5 5 7 11 12 12 10 11 11 10 9 7 6 6 6 7 7 10 13 12 14 16 15 15 14 15 15 15 13 10 12 13 13 12 11 11 11 11 11 10 9
8 8 7 6 5 6 9 12 11 11 13 9 9 9 8 7 9 7 6 10 11 14 12 15 16 13 12 12 13 14 14 15 12 10 10 12 12 10 10 11 11 11 11 10 9
8 8 7 6 6 8 10 10 7 8 14 11 9 9 9 7 9 8 7 10 12 14 14 17 14 11 12 14 14 14 14 15 14 11 11 12 14 12 9 8 9 9 9 9 8
8 8 7 6 10 10 11 7 7 9 21 16 12 10 9 8 11 6 7 9 12 15 14 15 12 13 14 14 12 14 11 11 12 13 17 12 19 13 11 10 9 9 10 10 10
8 8 7 7 11 12 9 7 7 11 27 16 13 8 9 11 11 10 7 10 14 14 15 16 15 14 15 13 11 13 11 11 12 13 14 14 17 14 11 12 11 9 9 9 9
8 9 7 9 10 10 8 8 11 21 27 20 14 14 13 12 12 11 11 10 11 15 15 15 12 13 13 12 11 10 11 12 12 13 19 15 16 16 14 13 11 9 9 9 9
8 9 9 9 12 9 9 13 21 25 20 22 17 15 14 15 14 13 14 15 17 22 22 17 15 13 11 13 11 12 14 20 22 21 20 14 16 14 12 11 9 10 10 9 8
8 8 9 9 9 9 13 19 27 27 24 16 15 15 16 16 16 15 15 19 16 18 21 20 22 14 12 13 13 13 14 18 25 22 19 14 17 13 11 9 9 8 9 9 9
8 12 12 10 9 12 17 26 24 23 18 17 17 21 21 16 17 18 18 17 16 15 19 18 20 14 13 12 12 14 16 12 16 19 18 17 14 11 10 10 10 10 10 10 11
13 13 13 9 11 15 21 22 21 16 14 16 21 20 26 20 20 21 19 15 16 14 13 14 19 15 13 12 12 13 11 16 16 24 24 18 18 16 13 12 10 11 11 11 10
14 16 12 10 13 18 25 24 19 15 14 16 18 19 18 18 19 24 19 15 14 15 14 14 16 17 15 16 15 14 15 13 14 15 20 21 18 14 12 12 11 12 11 12 11
16 21 12 13 21 29 25 24 16 16 14 15 15 16 17 17 17 17 17 16 14 14 17 15 15 20 18 15 13 13 14 13 17 18 16 16 17 12 12 12 11 11 11 11 11
18 17 12 14 25 24 20 22 17 16 16 16 16 15 16 17 19 16 16 14 13 15 16 15 17 24 21 18 16 16 14 13 12 13 16 19 17 10 11 11 11 11 11 11 11
18 20 17 15 19 22 23 23 21 16 16 15 15 15 16 17 16 17 16 15 13 14 11 14 18 20 22 19 17 18 16 14 14 16 16 16 16 13 13 13 12 11 11 11 11
19 21 18 20 19 21 21 20 19 21 16 16 17 16 16 20 18 18 16 16 14 13 14 16 26 19 17 17 17 16 15 15 15 14 16 15 16 13 13 13 13 12 10 10 10
20 20 19 21 17 21 19 22 19 18 18 18 22 16 16 20 18 18 16 17 17 15 16 17 25 23 26 17 17 17 16 15 15 15 16 16 15 11 11 11 12 11 11 10 10
16 15 17 18 19 21 21 19 19 17 16 15 16 16 17 16 15 15 15 15 15 16 18 21 26 26 30 21 19 25 18 16 16 15 15 16 14 12 12 12 12 12 10 10 10

GFSSW_con_lsi_231.txt.gz
Lid_Strength_Index
6 6 6 5 5 5 5 5 5 4 4 3 2 2 2 1 2 5 7 3 2 -1 2 7 8 9 8 10 9 6 14 15 12 12 12 10 11 10 8 9 11 5 9 6 2
6 6 6 6 6 6 5 5 5 4 4 3 2 2 2 2 8 8 3 0 0 0 6 8 9 10 11 11 11 10 15 12 12 11 12 11 11 11 10 10 9 11 10 10 3
7 7 7 6 6 6 6 5 5 4 4 3 2 2 2 4 10 9 2 1 0 2 6 7 8 9 11 11 11 11 13 12 11 10 11 11 12 10 11 12 11 11 11 10 5
7 7 7 7 6 6 6 6 5 4 3 3 2 2 3 9 17 8 2 1 1 4 6 8 9 11 13 13 11 14 11 11 10 10 11 12 11 12 11 10 9 9 8 8 10
7 7 7 7 7 6 6 6 5 4 3 2 2 3 8 11 10 6 2 3 5 6 7 8 10 11 13 12 12 13 12 11 10 11 11 10 12 12 11 10 9 9 9 9 8
7 8 7 7 7 7 6 6 5 4 4 2 2 4 10 14 6 6 6 5 6 7 8 7 9 10 11 12 13 11 11 11 11 11 11 12 12 11 11 10 10 9 10 9 9
8 8 8 8 7 7 6 5 4 4 4 2 2 7 10 11 7 6 6 7 6 6 9 8 7 10 11 12 10 11 13 14 13 12 12 11 13 12 11 10 10 10 10 10 9
8 8 8 7 7 6 6 5 4 4 4 3 4 9 12 7 6 6 6 6 5 5 7 7 8 9 11 10 12 14 15 17 13 12 12 12 15 11 10 11 11 10 9 9 9
8 8 8 7 7 6 6 5 5 5 4 4 9 11 13 5 8 7 7 8 7 6 7 7 9 12 12 15 16 16 18 17 15 12 12 12 14 10 9 9 10 9 9 9 9
8 8 8 7 7 6 6 6 6 7 7 8 8 13 10 11 8 7 7 7 8 9 10 11 12 14 15 16 19 17 17 16 17 14 12 13 12 10 9 9 8 9 9 8 8
8 8 8 7 7 7 10 14 14 14 11 13 12 12 10 8 7 8 7 9 9 11 15 13 14 16 16 15 15 15 16 17 15 13 13 13 12 10 9 9 8 8 8 9 8
8 9 8 7 7 8 12 16 15 12 14 11 11 10 9 9 11 9 7 12 12 15 14 16 17 14 13 13 14 15 16 16 15 13 12 12 12 11 10 10 8 8 8 8 7
8 9 8 8 8 11 13 14 10 11 15 14 10 11 11 9 11 11 9 11 14 15 15 16 15 13 14 14 15 15 16 16 15 13 13 13 14 12 9 9 9 8 7 7 7
8 9 9 8 12 13 14 11 10 12 22 18 15 12 11 10 13 9 9 12 14 15 15 15 14 14 15 15 14 16 14 13 13 15 17 13 19 14 11 11 10 9 8 8 7
8 9 8 8 14 15 13 11 11 14 27 17 15 10 11 13 13 12 10 12 15 15 16 16 16 15 15 14 13 15 13 13 13 15 17 15 18 15 11 13 12 10 9 8 8
8 9 8 11 13 13 11 13 15 22 26 21 16 15 15 13 13 12 12 11 13 16 15 16 14 14 14 14 13 12 14 14 14 15 21 15 16 17 13 13 12 10 10 9 9
8 9 10 11 15 11 13 16 23 26 21 22 18 15 16 16 15 14 15 16 20 22 24 18 16 14 13 15 14 14 17 22 23 23 20 15 16 15 11 10 11 11 11 9 9
8 8 10 10 11 13 16 21 29 27 25 18 17 16 17 17 17 16 17 20 18 20 23 23 23 16 14 14 15 15 16 22 27 24 20 15 18 14 10 10 10 9 10 9 9
8 12 12 11 11 14 19 28 25 24 20 18 18 21 20 17 18 19 19 19 17 18 21 23 21 16 14 14 13 16 16 13 16 20 19 18 15 12 10 11 11 11 10 10 10
13 13 13 11 14 16 22 23 24 20 18 18 21 20 24 20 20 21 20 16 16 16 16 17 21 17 15 14 14 14 13 18 18 24 27 19 17 16 14 13 12 12 11 11 10
14 18 13 12 14 20 26 26 21 18 17 19 20 20 19 19 20 24 20 16 16 16 16 16 18 19 16 17 17 16 16 15 15 16 20 21 18 14 14 13 13 12 11 10 10
15 21 12 13 21 33 27 25 18 18 17 18 17 18 19 18 19 19 18 17 14 15 18 16 17 22 20 17 16 16 16 16 19 20 18 17 18 13 13 12 12 12 11 10 10
17 16 12 15 25 27 25 21 18 18 18 18 18 17 17 18 20 17 17 15 14 16 16 15 20 27 22 17 17 18 15 15 16 16 18 19 19 13 12 12 12 12 11 10 10
16 19 16 15 21 22 22 21 20 17 18 17 17 17 18 18 17 18 17 15 14 14 11 14 18 21 24 21 18 18 18 16 16 18 18 17 17 15 14 14 13 12 11 10 10
16 19 17 20 20 20 19 19 20 20 18 17 18 17 18 21 18 19 18 16 15 12 15 18 26 20 19 19 18 18 18 17 17 16 18 17 18 15 15 15 14 13 10 10 11
19 20 19 19 18 19 19 21 19 19 18 19 20 18 18 19 17 19 18 17 17 16 17 18 26 24 27 20 19 19 17 17 16 16 18 17 17 14 14 14 15 13 12 11 11
15 15 16 17 18 20 21 20 19 18 17 17 17 19 19 17 17 16 16 16 15 17 19 22 26 29 30 23 22 27 21 17 17 17 16 18 16 14 15 14 14 14 13 12 11

GFSSW_con_lsi_234.txt.gz
Lid_Strength_Index
6 6 6 6 6 5 5 5 5 4 4 3 2 2 2 1 3 4 6 3 1 -0 1 4 5 6 5 6 4 4 8 10 10 10 9 8 9 7 7 7 6 8 10 9 7
7 6 6 6 6 6 6 5 5 4 4 3 2 2 2 2 6 6 3 0 -0 0 4 5 7 6 7 7 7 7 9 10 9 9 10 9 9 9 9 8 8 7 7 8 8
7 7 7 7 6 6 6 6 5 4 4 3 2 2 2 3 8 7 2 0 0 2 3 5 6 7 8 7 8 8 10 9 9 9 9 9 9 8 9 10 9 9 8 7 9
7 7 7 7 7 6 6 6 6 5 4 3 2 2 3 6 12 6 2 1 1 3 4 5 6 8 9 10 9 10 9 9 9 9 9 9 8 9 9 9 7 7 6 6 7
7 8 7 7 7 7 6 6 5 5 4 3 2 3 6 8 8 4 2 3 3 5 5 7 8 8 9 9 9 10 10 9 8 8 9 8 9 9 8 7 6 6 6 6 7
8 8 7 7 7 7 6 6 5 5 4 3 2 4 7 10 5 4 4 4 4 5 6 6 8 7 9 9 9 9 9 9 9 9 9 9 9 9 8 6 6 6 6 6 6
8 8 8 8 7 7 6 5 5 5 4 3 3 6 7 9 5 4 4 5 4 5 7 6 6 8 8 9 8 9 11 10 9 9 9 8 10 10 7 6 7 6 5 5 5
8 8 8 8 7 6 6 6 5 6 5 3 4 6 9 5 4 4 4 5 4 4 5 6 6 7 9 8 9 11 10 11 10 9 9 9 12 8 6 7 7 5 5 5 5
8 9 8 8 7 6 6 6 6 6 5 5 6 7 10 4 6 5 5 6 5 5 6 6 6 8 9 11 11 11 13 13 12 10 10 9 11 8 6 7 6 5 5 5 5
8 9 8 8 7 7 7 6 6 7 7 7 7 9 8 9 7 6 5 6 7 7 7 7 8 10 10 10 14 14 14 13 13 11 10 10 10 8 7 7 6 5 5 5 4
8 9 9 8 7 7 9 10 11 11 9 11 10 9 9 6 6 7 6 7 8 8 10 10 11 13 12 12 12 12 13 14 12 11 11 11 10 9 7 7 7 6 6 5 5
8 9 9 8 7 8 10 13 13 10 13 10 9 8 7 7 10 8 6 9 9 12 11 11 13 12 11 12 12 12 13 13 12 11 11 11 10 9 7 7 7 6 6 6 5
8 9 9 8 8 9 11 11 9 10 13 13 10 10 9 8 10 10 8 10 11 12 12 12 12 11 12 12 13 13 13 14 14 12 11 11 11 10 8 7 6 6 6 7 6
8 9 9 8 11 11 12 9 9 11 15 16 14 11 9 8 11 8 8 10 11 13 12 12 12 12 12 13 12 14 12 13 13 13 14 11 14 11 9 9 8 7 7 8 8
8 9 9 8 11 13 11 9 9 11 18 16 15 9 9 11 11 10 8 10 12 13 12 14 13 13 13 13 12 14 12 13 13 13 14 13 15 12 10 11 10 8 8 8 8
8 9 8 10 10 11 9 11 11 16 20 18 15 14 12 12 12 10 10 10 11 12 12 13 11 11 12 11 11 11 12 13 13 13 16 14 14 14 13 12 10 8 8 8 9
8 8 9 11 13 9 10 12 17 18 19 19 17 14 14 14 13 13 13 14 14 15 15 14 14 12 11 12 11 12 14 16 17 16 17 13 14 13 10 9 9 9 8 8 8
8 8 9 10 10 11 13 15 20 21 21 18 17 16 16 15 15 14 15 15 14 15 16 15 17 14 12 12 13 13 14 16 20 18 17 13 16 13 9 8 8 7 7 8 8
8 10 10 10 10 12 14 18 18 20 18 18 17 18 18 16 15 15 15 15 14 14 16 16 17 13 12 11 12 14 15 13 16 18 18 14 13 10 9 9 8 8 8 10 9
11 12 12 10 12 13 16 19 19 19 17 17 18 19 19 18 16 16 16 14 15 13 13 15 17 14 13 11 11 12 11 16 15 20 20 16 16 15 12 11 10 9 9 9 10
12 16 12 10 11 15 19 19 19 18 16 17 19 20 18 18 16 17 16 14 13 12 12 13 15 16 14 14 14 14 15 14 14 15 18 19 16 12 12 11 11 10 9 9 10
14 18 11 12 17 22 20 21 18 18 16 17 17 18 18 18 18 17 16 15 12 11 15 13 15 16 16 14 13 12 15 14 16 18 15 16 15 11 11 11 10 10 9 8 9
16 16 11 13 20 21 22 20 18 18 17 17 18 17 17 18 19 16 15 14 12 13 14 13 16 19 18 15 15 14 14 14 14 14 17 17 15 11 10 10 10 10 9 8 8
15 18 15 14 17 19 20 19 19 17 17 17 17 17 18 18 17 18 16 14 13 12 12 12 15 18 19 18 15 17 16 15 14 16 16 15 14 12 12 11 10 10 9 8 9
15 16 15 20 19 19 17 18 19 20 17 17 18 17 18 20 18 18 16 15 13 12 14 15 18 17 17 17 16 17 17 16 16 14 16 15 14 13 12 12 11 10 9 9 9
17 17 16 17 16 18 18 19 18 18 18 18 18 17 18 18 17 19 16 15 15 14 16 16 19 20 21 18 18 18 16 16 15 14 14 14 15 11 11 11 10 11 10 10 10
13 13 14 16 17 18 19 18 18 17 17 16 17 17 18 17 16 15 14 14 14 15 17 18 20 20 21 22 20 21 19 16 15 13 13 16 13 11 12 12 12 11 11 11 10

GFSSW_con_lsi_237.txt.gz
Lid_Strength_Index
6 6 6 6 6 6 5 5 5 5 4 3 2 2 2 1 1 4 6 3 1 -0 0 3 4 4 4 5 3 3 7 9 9 9 9 8 9 7 6 7 5 6 6 7 7
7 7 6 6 6 6 6 5 5 5 4 3 2 2 2 2 5 6 2 0 -0 0 3 5 6 5 6 6 6 6 8 10 8 9 10 8 8 8 8 8 8 7 6 5 5
7 7 7 7 6 6 6 6 5 5 4 3 2 2 2 3 7 7 1 0 0 1 3 4 5 6 7 7 7 8 10 8 9 9 8 9 9 7 8 9 8 8 7 6 5
7 7 7 7 7 7 6 6 5 5 4 3 2 2 2 5 11 5 1 1 1 3 4 5 6 7 8 9 7 9 9 8 8 8 8 8 7 8 8 7 6 6 5 5 6
7 8 7 7 7 7 6 6 5 5 4 3 2 3 5 7 8 4 1 2 3 4 5 6 7 7 9 8 8 9 9 8 8 8 8 7 8 8 7 6 5 4 4 4 5
8 8 8 8 7 7 6 6 5 5 5 4 2 3 6 10 4 3 3 3 4 4 5 5 7 6 8 8 9 8 8 8 8 8 8 8 8 7 7 6 6 5 5 4 4
8 8 9 8 7 7 6 6 5 5 5 4 3 5 6 8 4 3 3 4 4 4 6 5 6 7 7 9 8 8 10 9 9 8 9 8 9 9 6 6 6 6 5 4 4
7 8 9 8 7 7 6 6 5 6 5 5 4 4 8 4 3 4 4 4 3 4 5 5 5 7 7 7 9 10 9 11 9 8 8 8 11 8 6 7 7 6 5 4 3
7 8 9 8 7 7 7 6 6 6 6 6 6 6 9 3 6 4 4 6 5 5 5 5 5 7 8 9 10 10 12 12 11 9 9 8 11 8 6 7 7 6 5 4 3
8 8 9 8 7 7 7 7 6 7 7 8 7 8 7 9 6 5 4 5 7 6 6 6 7 8 8 10 12 12 13 13 12 10 9 10 10 8 7 7 7 7 6 5 4
8 9 9 8 8 8 8 9 10 10 9 11 11 10 8 6 5 6 5 6 7 8 9 8 9 12 11 10 10 11 12 13 11 10 10 10 10 9 8 7 8 7 6 6 5
8 9 9 8 8 8 9 12 11 9 12 10 10 9 7 6 9 7 5 8 9 10 9 9 12 11 10 10 11 11 12 13 11 11 11 10 10 9 8 8 7 7 6 6 5
8 9 10 9 8 9 10 11 8 9 12 13 11 11 9 7 10 9 7 8 9 10 10 11 12 10 11 11 12 12 12 13 13 11 10 11 11 10 8 7 7 6 5 5 6
8 9 10 9 10 10 11 9 8 9 15 15 14 12 10 8 11 8 7 9 10 11 11 11 11 11 11 12 11 13 11 12 13 12 13 10 15 11 9 9 8 7 6 6 6
7 9 10 9 10 12 10 9 8 10 18 16 15 10 10 11 10 10 8 8 11 12 11 13 12 12 12 12 11 13 11 12 12 12 13 12 14 11 9 11 9 8 7 6 7
7 9 9 10 10 10 9 9 10 17 20 18 15 14 13 12 11 10 10 9 10 11 11 12 10 10 11 11 11 11 12 12 12 13 16 13 14 14 12 11 9 8 7 7 7
7 8 9 10 12 8 9 11 18 19 18 18 18 15 14 14 13 12 12 12 13 14 14 13 13 11 10 12 11 11 13 15 17 16 16 13 14 12 10 9 9 9 7 8 7
7 7 9 9 8 9 11 14 20 17 17 17 16 16 16 15 15 13 13 13 13 14 14 14 15 13 11 12 13 13 13 15 19 18 16 13 15 12 9 8 7 7 7 7 7
7 9 10 9 10 10 13 18 17 17 18 18 17 17 18 17 15 15 14 13 13 12 13 15 16 12 11 10 11 13 14 12 15 17 17 14 12 10 8 9 8 8 7 7 8
10 11 11 9 10 11 15 17 17 18 16 16 17 17 18 18 17 16 15 13 14 12 12 14 16 14 12 11 11 12 11 15 14 19 19 16 15 13 12 11 9 9 8 8 7
12 14 11 10 10 14 18 17 17 17 16 17 17 19 17 18 17 16 16 15 13 12 11 13 14 15 13 14 14 13 14 14 14 15 18 19 15 11 12 10 10 9 8 8 8
12 16 10 10 16 17 18 18 17 18 16 16 16 17 17 17 18 17 17 15 12 11 14 12 13 16 15 13 12 12 14 13 16 17 15 16 16 10 10 10 9 9 8 8 8
16 15 11 11 19 19 19 19 17 18 17 17 17 17 17 18 19 17 16 14 13 13 14 13 15 18 17 15 14 14 13 14 14 14 17 17 15 10 10 10 9 9 9 8 8
15 17 15 14 14 17 18 19 19 16 16 16 17 16 17 18 17 18 17 15 14 14 13 12 14 16 17 16 14 16 15 14 14 16 16 15 14 12 11 11 10 9 9 9 9
15 15 14 19 18 18 17 17 19 19 17 16 18 17 17 19 18 18 17 16 15 14 14 14 17 16 16 16 15 15 16 15 16 14 16 14 14 12 11 11 10 9 9 9 9
15 15 14 15 15 17 18 18 18 17 17 18 18 17 17 18 17 18 17 17 17 15 16 16 18 18 20 18 17 18 16 16 15 14 14 13 13 10 10 10 10 9 9 9 10
11 11 12 15 16 17 18 18 17 16 16 15 16 17 18 16 15 14 14 14 14 16 17 17 19 19 19 20 19 20 19 17 15 14 13 15 12 10 11 11 11 10 10 10 10